Вернуться в каталог

STARLINK-2412

АктивенСвязьVLEO
NORAD 48094·PAYLOAD·🇺🇸 United States

Запущен Apr 7, 2021 с Cape Canaveral Space Force Station

Loading…

Ближайшие Пролёты (ближайшие 24 часа)

TLE

СвежийSource: CelesTrak SupGP

Эпоха: Sep 15, 2026, 01:39 UTC

1 48094C 21027C   26258.06923611  .00013254  00000+0  42621-3 0  2588
2 48094  53.1608   4.4144 0000950  65.8614 199.7158 15.31696334    13

Отслеживайте STARLINK-2412 в реальном времени с AllMySat

Download on the App Store